Wind_Speed
17 17 21 20 20 22 19 17 12 5 5 7 8 8 8 8 6 4 4 3 4 5 7 11 11 10 11 13 16 18 18 19 20 21 23 24 25 26 25 24 23 21 20 20 20 20 19 19 18 17 17 16 15 14 14 13 13 13 13 12 13 13 13 13 11 10 10 10 10 10 9 9 9 9 10 11 11 11 12 13 13 13 13 13 13 13
18 17 21 21 18 19 17 14 12 8 7 7 8 9 9 9 7 5 4 6 6 6 5 7 8 8 10 12 15 19 19 19 20 21 22 24 25 26 26 25 24 22 21 21 21 20 20 20 19 18 17 17 16 15 14 13 13 13 13 13 13 13 14 14 13 12 11 11 11 12 10 9 9 10 10 11 11 11 12 12 13 13 12 12 12 12
18 17 18 19 17 17 17 18 18 12 7 8 8 9 10 9 7 5 5 6 7 6 5 7 8 9 10 11 13 17 19 19 20 20 21 22 24 25 26 26 25 24 23 22 22 21 21 20 20 19 17 17 16 15 15 14 13 13 14 14 14 14 15 15 14 13 13 12 13 13 12 10 10 11 11 11 11 11 12 12 13 12 12 12 11 11
16 16 17 18 18 16 16 19 18 14 11 9 9 10 10 8 8 6 5 6 7 6 5 7 8 9 12 13 13 15 18 19 20 21 21 21 23 24 25 26 25 25 25 24 23 22 22 21 20 19 18 17 17 16 15 15 14 13 13 14 14 15 15 16 15 14 14 13 13 14 13 11 11 11 11 11 11 11 11 12 12 12 12 11 11 10
12 12 15 17 19 17 14 15 14 13 13 11 10 10 7 6 7 8 7 6 6 6 7 8 8 11 14 14 14 16 17 20 22 22 22 22 22 24 25 26 26 26 26 24 23 23 22 21 20 20 19 17 17 16 15 15 14 13 13 14 14 15 15 16 15 14 13 13 13 13 12 11 11 12 11 11 11 11 11 11 11 11 11 11 10 10
12 13 15 15 18 18 13 13 14 13 13 12 13 11 5 4 6 10 9 5 5 7 8 9 9 10 13 15 16 17 18 19 23 24 24 24 24 25 25 27 27 26 27 25 24 23 22 21 20 20 19 17 17 16 16 16 15 14 14 14 14 15 15 15 15 14 13 13 13 13 12 12 12 12 11 12 12 11 11 10 10 10 10 10 10 10
11 12 14 14 17 18 14 14 14 14 13 11 13 12 7 4 5 9 10 6 6 6 5 10 10 5 7 13 17 19 19 19 22 24 25 26 25 25 25 27 28 28 27 26 25 24 22 21 20 19 19 17 17 17 17 17 16 16 15 15 15 15 15 15 15 14 14 14 14 14 14 14 13 13 12 12 13 12 11 11 10 9 9 9 9 9
11 8 11 13 16 17 17 16 15 16 14 8 8 10 8 7 7 8 7 6 8 6 4 9 11 7 7 11 15 18 19 19 21 22 24 27 26 25 26 26 27 28 28 27 26 25 23 22 21 20 19 18 18 17 17 18 17 17 16 15 15 15 15 15 15 15 15 15 16 16 16 17 16 15 14 14 13 13 12 11 10 10 9 9 8 8
11 11 10 12 15 17 18 17 14 16 15 7 5 10 8 6 7 8 7 7 8 9 9 9 10 8 7 10 13 15 19 19 19 21 24 28 29 26 26 27 27 27 28 28 26 25 25 23 21 20 19 19 19 18 18 18 18 17 16 16 16 16 16 15 15 16 16 16 17 18 18 18 17 16 15 14 13 13 12 12 11 10 9 9 9 9
9 15 13 12 13 13 16 15 13 16 16 8 6 10 9 6 7 7 9 9 7 9 12 10 12 10 6 11 14 15 17 18 17 18 21 26 30 29 28 28 29 28 28 28 27 25 25 23 21 20 20 20 20 19 18 18 19 18 17 17 16 16 16 16 16 16 17 18 18 19 18 17 17 16 15 14 13 13 12 12 11 10 10 10 9 10
7 14 15 14 12 9 10 12 13 16 15 10 8 10 10 9 8 7 9 10 7 11 13 11 13 11 6 10 12 11 11 11 12 14 16 21 26 28 29 30 30 29 29 29 28 26 25 24 22 21 21 21 21 20 19 19 19 19 18 17 16 16 17 16 16 17 18 19 19 19 18 16 15 15 15 15 14 13 12 11 11 11 10 10 10 10
7 10 12 13 13 10 8 9 11 14 15 12 10 11 12 11 10 9 10 9 8 9 10 9 10 11 9 5 6 6 7 8 8 8 9 14 19 23 27 32 33 31 30 30 28 27 26 24 23 23 23 23 23 22 20 19 19 19 18 17 16 16 17 17 17 17 18 19 19 19 17 16 14 14 14 14 13 13 12 12 11 10 10 10 9 10
10 11 10 10 12 13 11 10 10 12 15 15 13 15 14 12 10 10 10 9 10 10 8 6 8 11 11 6 4 5 6 7 7 6 6 7 11 17 23 30 35 33 30 31 30 28 27 26 25 26 26 25 25 24 21 19 18 18 18 18 17 16 16 17 17 17 18 19 19 19 17 16 15 14 14 13 13 13 13 12 11 10 10 10 10 10
11 13 14 12 11 14 16 14 12 12 14 17 17 18 16 12 9 9 9 9 11 14 11 5 6 10 11 8 8 9 9 8 7 7 8 7 8 12 19 27 33 33 32 32 31 30 28 27 27 29 28 27 26 24 22 20 19 18 18 18 17 16 16 16 17 18 18 19 19 19 17 16 15 14 14 13 13 13 12 12 12 11 11 11 11 11
9 10 15 17 14 14 18 17 12 10 13 18 18 18 18 16 12 9 10 10 11 13 13 9 6 7 9 10 11 12 11 10 8 7 9 11 10 10 15 24 30 33 34 33 32 31 29 28 29 30 29 28 26 24 23 21 20 19 18 17 17 16 15 16 17 17 18 19 19 19 18 17 16 15 14 13 13 12 12 12 12 12 11 11 11 11
8 7 8 13 13 13 17 18 14 9 10 15 17 18 20 20 17 13 12 13 14 12 11 12 10 7 7 11 12 9 7 7 6 5 6 9 13 12 14 22 30 34 35 35 33 31 30 29 30 31 30 28 27 25 23 23 21 20 18 17 17 16 16 16 16 17 18 18 19 19 19 17 16 15 14 14 13 12 12 12 12 11 11 11 11 10
9 8 7 9 12 13 13 16 18 14 10 12 18 21 19 16 16 15 13 12 13 11 9 13 14 11 8 11 13 11 8 6 5 5 6 7 12 14 13 19 28 34 35 35 33 31 30 31 32 31 29 28 27 25 24 22 20 18 17 17 17 17 16 16 16 17 17 18 19 19 19 18 16 15 14 13 13 13 12 12 12 11 11 10 10 10
7 8 9 7 10 15 15 13 17 18 13 10 14 19 16 13 14 15 12 10 10 9 9 14 16 15 12 10 10 10 9 9 7 6 6 8 11 13 12 15 24 32 35 35 34 33 31 32 32 31 30 28 27 25 23 20 18 17 16 15 16 17 16 16 16 16 17 18 19 19 19 18 17 16 15 15 14 14 14 13 13 12 11 10 10 9
6 7 8 7 7 13 16 13 14 17 18 13 9 12 16 13 14 15 12 10 10 8 9 13 14 17 15 10 7 7 7 8 9 8 7 9 11 11 10 13 21 30 35 35 35 35 33 33 33 32 30 29 27 25 23 21 20 18 17 16 16 16 16 16 17 17 17 17 18 19 19 19 18 17 17 16 16 15 14 14 14 13 12 11 10 9
5 6 7 10 7 9 14 15 15 16 20 18 10 10 15 15 14 17 17 14 11 8 9 10 12 14 14 12 13 12 10 9 9 8 9 10 11 10 9 10 16 26 32 33 34 35 34 32 32 32 31 29 28 26 25 24 22 21 19 18 16 15 16 18 18 18 18 17 18 19 19 20 19 19 18 17 17 16 15 15 14 14 14 13 11 10
4 7 6 9 9 10 14 17 16 13 18 22 18 14 16 15 12 14 18 21 16 10 8 9 9 10 12 15 19 18 14 12 10 9 9 10 9 9 8 8 11 20 28 31 33 35 35 33 32 32 32 31 30 29 27 26 25 23 22 20 19 17 16 17 17 18 18 18 18 18 19 20 20 20 19 19 18 17 17 16 16 15 15 14 13 12
3 6 6 6 11 11 10 13 15 13 13 18 20 19 17 17 15 11 12 20 20 14 11 10 8 8 12 17 20 18 14 12 11 10 9 9 9 9 8 8 9 15 24 30 33 34 35 35 33 33 34 33 31 30 29 28 27 26 24 23 22 21 19 17 17 17 18 19 19 19 19 20 20 21 20 20 19 19 18 17 17 16 16 15 14 14
3 5 7 7 8 6 3 9 16 16 14 14 15 15 15 16 18 16 12 14 19 18 14 12 8 5 10 15 17 16 14 12 10 9 9 10 11 10 9 9 8 10 17 26 31 32 33 34 34 34 35 34 33 32 31 30 30 29 27 27 25 24 23 21 20 19 19 20 20 21 21 20 21 21 21 21 20 20 19 19 18 18 17 16 16 15
4 4 7 7 5 3 2 5 11 15 16 15 12 10 13 15 15 15 12 8 14 20 17 12 8 7 9 11 13 13 12 12 11 9 10 11 12 11 10 9 8 9 13 20 27 30 31 31 32 33 33 33 34 34 33 33 33 31 30 30 28 27 26 25 24 23 21 21 22 22 22 22 21 22 22 22 21 21 21 21 20 20 19 18 17 17
4 4 6 8 7 7 7 7 10 11 11 11 8 8 15 17 13 14 13 8 10 16 18 16 10 8 10 10 12 13 12 13 13 11 12 13 13 12 11 9 9 10 12 17 23 28 30 29 30 32 33 33 31 32 33 34 34 33 32 31 29 29 29 28 27 26 24 23 23 24 24 24 23 23 23 22 22 22 22 22 22 22 21 20 19 19
5 4 6 8 8 7 6 6 8 8 7 6 3 4 10 12 12 16 16 14 14 12 14 18 11 4 7 11 13 14 14 15 16 14 14 15 14 13 12 10 10 11 12 15 20 26 29 29 28 31 34 34 31 28 29 30 30 30 30 32 32 32 32 32 30 29 28 27 26 26 26 26 25 24 24 24 24 24 24 24 24 24 23 23 22 21
4 6 7 8 9 8 5 3 4 3 4 4 2 0 3 5 11 16 15 15 15 12 14 18 14 5 5 9 12 14 15 17 18 16 14 16 16 14 14 13 13 13 14 15 19 24 27 28 27 28 31 33 32 30 26 24 23 22 22 27 33 34 33 34 33 32 31 30 28 27 27 27 27 26 26 26 25 25 25 25 26 26 26 25 25 23
4 7 8 8 8 10 8 6 4 3 3 5 5 4 3 3 6 13 15 13 11 12 13 13 15 13 10 9 11 14 16 17 18 17 14 15 17 16 15 14 13 13 14 15 17 21 23 25 25 24 25 27 27 26 23 22 22 21 20 22 28 32 33 33 34 34 34 33 31 29 28 28 28 28 29 29 28 27 26 26 26 27 28 28 27 26
5 7 8 7 8 11 12 10 7 2 1 4 6 6 6 6 3 5 11 11 9 10 8 5 10 13 11 11 13 13 14 16 18 17 14 14 17 16 15 14 14 15 16 16 17 18 21 22 22 22 23 24 24 24 23 23 24 25 25 23 25 29 31 32 34 35 35 34 34 32 31 31 30 29 30 31 30 30 29 28 28 28 29 29 29 29
5 6 7 7 9 12 13 13 12 9 7 5 5 6 6 7 6 3 5 11 14 13 10 7 7 7 8 12 15 12 12 13 15 16 15 15 17 17 16 16 16 17 17 17 17 16 18 19 20 21 22 23 24 24 24 25 26 28 28 25 24 26 28 30 32 33 34 33 33 33 33 33 32 31 31 31 32 32 31 31 30 29 29 29 30 30
5 6 8 8 10 13 12 11 13 12 10 10 8 7 6 6 7 6 4 9 13 11 10 11 8 6 9 12 14 13 13 13 12 15 15 15 16 17 17 17 18 17 17 17 16 15 15 16 17 18 19 20 21 22 23 24 25 25 25 23 22 23 24 25 26 27 29 29 31 33 35 36 35 34 33 32 32 32 32 32 32 31 31 30 30 30
4 5 7 8 11 13 12 10 11 10 9 12 11 8 5 4 7 8 7 6 9 10 11 11 8 8 11 14 14 14 14 13 13 14 14 14 15 18 18 17 17 17 16 16 15 14 15 15 16 16 17 18 19 20 20 20 20 21 21 22 21 21 22 23 23 24 25 26 29 31 33 34 35 36 36 35 35 34 33 32 32 33 32 31 30 30
5 6 6 9 11 11 10 8 8 7 7 10 11 7 3 3 6 7 8 7 5 8 8 8 9 10 13 16 17 16 15 15 14 13 14 15 15 15 16 16 16 15 15 15 14 14 14 15 16 16 17 18 19 19 17 17 17 18 18 20 21 21 22 23 23 23 24 25 26 26 27 28 30 34 38 39 39 38 36 34 33 33 33 32 32 31
5 6 6 7 9 9 8 7 7 8 6 7 10 11 8 5 4 4 7 8 4 4 6 9 12 14 15 15 16 17 19 19 17 17 18 18 15 12 12 13 14 15 14 14 14 15 15 15 16 15 16 17 17 16 15 15 17 17 18 20 21 20 20 20 21 21 21 21 22 22 23 24 25 28 33 37 40 40 39 38 36 34 34 34 33 32
4 5 6 7 8 7 7 10 10 8 6 8 13 14 12 9 6 4 6 7 5 4 4 8 10 13 14 14 15 18 21 21 19 21 22 21 17 14 14 15 16 16 15 14 14 14 13 14 14 13 12 13 12 11 11 12 14 15 17 19 20 20 19 19 19 19 19 20 20 20 20 21 21 23 26 30 35 37 40 41 41 38 36 34 33 32
3 4 5 6 8 7 9 12 9 4 5 9 12 12 11 9 7 5 5 5 6 7 5 3 7 11 10 14 17 17 17 17 18 20 22 21 18 18 19 19 18 17 16 14 13 11 11 13 14 14 14 13 11 11 11 11 11 11 13 17 19 19 19 18 19 19 19 19 19 19 19 18 19 20 22 24 27 30 33 37 41 41 39 35 33 31
2 2 5 7 7 8 10 11 7 4 5 6 7 11 12 9 7 6 4 3 5 6 6 4 6 9 10 14 16 13 14 17 19 21 22 21 20 21 21 19 18 17 15 14 14 13 13 13 14 16 17 15 12 12 13 14 14 12 13 16 17 17 16 17 18 18 19 19 19 18 18 18 18 19 20 21 22 23 24 27 32 37 38 36 33 31
3 3 6 7 6 8 10 9 8 7 4 4 5 9 11 11 9 7 5 3 4 4 4 7 8 6 8 12 12 11 15 20 22 23 24 23 21 21 19 18 17 17 16 16 16 16 15 15 15 15 16 16 14 13 13 13 13 13 14 15 16 15 15 15 16 17 18 18 18 18 18 18 18 18 17 18 17 17 17 18 22 28 34 37 35 33
4 3 5 7 6 8 9 9 8 6 2 2 4 8 9 9 8 7 6 5 2 1 1 4 9 6 4 10 12 13 16 20 22 24 23 22 22 20 19 19 20 21 20 18 17 17 15 15 16 16 16 16 16 14 12 12 13 13 13 13 14 14 14 15 15 16 17 17 18 18 18 18 18 17 17 17 16 14 14 14 15 19 26 32 34 34
3 2 3 7 6 6 8 9 5 2 2 4 6 7 7 7 8 8 7 5 2 1 1 2 7 8 1 6 12 16 18 19 23 26 25 24 24 23 23 24 22 22 21 17 16 16 16 15 16 16 15 15 14 14 13 13 14 14 13 13 13 12 13 14 15 15 16 17 17 18 18 18 18 17 17 17 16 14 14 13 12 14 19 23 28 32
2 2 2 4 5 5 7 8 3 3 2 5 5 5 6 7 9 9 7 4 3 4 3 2 3 5 5 2 7 13 15 15 18 21 23 21 20 20 21 23 21 19 19 18 16 15 15 15 15 15 14 14 13 13 13 14 15 15 15 14 14 13 12 13 14 14 15 16 17 17 18 17 16 16 17 16 15 13 13 12 11 12 15 18 21 24
1 1 1 2 3 3 5 7 3 2 1 3 2 3 4 4 6 7 7 7 6 6 6 5 5 4 3 2 2 6 11 13 13 14 16 15 15 15 17 21 23 23 22 21 19 18 17 15 14 13 12 12 12 11 12 12 13 13 13 13 13 13 12 12 13 14 14 14 15 16 17 16 15 16 16 17 16 15 14 13 11 11 13 15 14 14
1 2 1 0 2 3 5 6 4 1 2 3 2 1 1 2 3 4 5 7 7 6 7 7 8 8 6 4 4 5 8 11 11 12 14 15 16 16 14 15 20 22 24 23 21 20 19 17 15 14 12 10 10 9 8 8 9 9 10 11 11 11 12 12 14 14 14 14 14 14 15 15 15 15 16 16 17 18 17 16 15 14 14 15 15 14
1 1 1 1 2 3 2 2 1 1 1 1 0 1 1 1 2 3 4 6 6 6 7 7 8 9 9 8 7 6 7 8 7 9 12 13 15 15 12 12 14 17 21 24 24 23 21 19 16 14 12 10 9 8 7 6 6 7 8 9 10 11 12 13 14 14 14 14 13 13 13 13 14 13 13 13 13 14 15 16 16 17 17 19 19 18
2 1 0 0 2 3 2 1 3 4 3 2 1 0 1 0 1 2 3 5 6 6 6 7 8 10 11 11 9 9 11 8 8 12 14 13 14 15 15 15 15 16 17 20 21 21 20 18 16 13 11 9 7 6 5 4 4 5 6 8 10 12 13 13 13 13 14 14 14 13 13 12 13 12 11 11 11 11 11 11 12 13 14 16 18 20
6 4 2 1 3 4 4 4 5 5 5 5 4 3 3 3 3 3 2 3 5 5 6 8 9 10 12 12 11 14 16 13 14 16 17 16 15 16 16 17 17 17 17 17 16 15 14 14 13 11 10 9 6 4 3 3 3 4 5 6 9 11 12 12 12 12 13 13 13 13 13 12 12 12 12 12 12 11 11 11 11 10 11 12 13 14
8 6 5 5 5 4 4 6 6 6 6 6 6 6 6 6 6 6 6 5 6 6 7 8 9 10 12 14 14 14 14 14 15 18 19 18 19 20 20 19 19 19 18 16 14 13 12 12 12 11 10 8 7 5 4 4 4 5 5 6 7 9 11 12 13 13 13 13 13 13 13 13 13 13 13 13 13 13 12 12 12 12 11 11 11 12
8 6 5 7 7 6 7 10 9 8 9 9 9 8 8 8 8 8 9 9 9 9 8 9 9 10 12 13 11 9 10 12 16 20 20 17 18 21 23 24 24 24 22 20 18 16 15 14 15 14 13 11 9 6 3 4 4 5 7 8 8 9 10 11 12 13 14 14 14 14 15 15 15 14 14 14 14 14 14 14 14 14 14 14 14 14
8 6 6 8 7 7 9 11 11 10 10 12 12 11 11 10 10 10 10 11 12 12 12 12 11 11 11 11 9 8 10 11 12 17 20 18 18 21 24 26 25 23 22 22 20 17 15 15 14 12 12 12 12 9 7 6 5 5 6 7 9 10 11 11 12 13 14 15 16 17 18 18 18 18 18 18 18 17 17 17 17 17 17 18 18 18
9 7 8 9 8 7 9 11 11 9 9 12 13 12 12 12 12 12 12 12 12 13 13 14 15 14 12 10 7 6 9 10 10 14 18 17 15 15 16 20 25 25 23 22 20 16 14 13 10 8 8 10 11 12 12 11 7 7 7 7 8 10 11 12 13 13 14 15 16 17 19 20 21 22 22 22 22 22 22 21 21 21 21 21 21 22
10 9 10 9 8 9 11 13 13 11 12 15 15 14 14 14 14 14 13 13 13 13 13 14 15 16 15 11 7 5 6 8 9 11 13 13 12 10 10 13 19 23 22 20 19 16 14 11 8 7 8 8 9 11 14 15 13 10 10 10 9 9 10 11 12 13 14 15 15 16 18 19 20 22 23 24 25 25 25 25 25 25 25 25 25 25
Wind_Direction
188 189 194 196 201 199 196 205 217 219 194 199 201 202 202 196 189 167 180 190 146 150 184 191 194 193 194 204 203 197 194 194 194 190 187 189 193 194 194 192 189 188 188 190 193 194 195 195 193 190 188 185 181 178 177 176 173 170 167 163 160 161 159 154 154 156 160 164 165 161 157 156 156 157 156 155 154 153 151 149 144 142 140 140 140 140
192 197 203 201 200 197 200 210 208 199 199 204 207 208 204 198 189 166 186 205 166 154 194 202 204 207 199 204 208 203 199 197 196 195 192 192 195 196 196 195 190 189 190 192 193 196 198 198 195 194 191 186 183 181 179 179 177 172 169 166 161 159 158 158 159 159 160 164 166 165 163 161 163 164 161 159 158 157 157 154 149 146 145 144 144 144
197 205 205 199 197 196 202 206 200 196 204 209 211 217 212 192 180 177 173 186 171 159 201 208 204 219 215 207 211 210 206 203 201 199 197 197 198 199 198 196 192 191 192 194 195 196 199 201 199 197 195 190 186 184 182 180 181 177 172 169 166 162 161 163 164 165 165 165 167 167 164 166 169 167 164 161 159 158 158 156 153 150 149 149 149 148
199 209 204 199 198 197 202 203 200 202 207 211 216 219 209 179 179 189 166 175 182 171 205 213 201 218 223 214 212 214 211 206 202 201 200 201 201 202 201 199 195 194 195 196 196 198 200 202 201 200 199 194 188 187 186 183 182 182 176 172 172 169 165 167 171 172 171 168 168 168 166 169 171 168 165 163 160 159 157 156 156 155 155 156 155 154
200 202 193 198 203 197 198 203 201 205 208 211 217 218 200 161 172 179 163 169 190 207 218 205 200 216 223 222 215 212 212 209 204 201 201 202 202 202 202 202 199 196 197 198 199 200 201 202 202 202 202 199 191 188 190 187 183 184 182 177 177 176 171 172 176 175 173 170 168 168 167 167 169 167 166 165 163 161 160 160 159 159 161 162 161 161
208 209 197 199 203 196 196 205 203 205 211 213 212 214 198 152 168 186 187 176 202 233 221 199 205 212 216 225 223 215 214 213 209 207 205 203 201 200 200 202 202 200 199 200 201 203 203 202 203 204 205 204 198 193 191 190 187 185 186 183 182 181 177 176 177 175 172 171 167 164 161 160 164 167 168 168 169 168 167 165 164 163 164 164 165 165
211 220 210 201 198 196 199 206 205 206 214 215 208 211 209 184 186 200 205 207 223 239 218 208 218 214 209 221 223 220 217 214 213 211 207 204 202 200 200 201 203 202 201 202 203 205 205 203 204 205 206 206 204 201 195 191 190 188 187 186 185 186 182 178 178 174 171 170 165 159 156 156 160 166 170 173 175 175 174 171 169 168 168 168 168 168
197 192 192 191 194 199 204 207 208 209 212 214 197 201 209 208 209 209 208 221 237 255 245 220 224 243 243 224 220 220 218 215 215 215 209 205 203 202 201 201 203 204 203 204 204 204 206 204 203 204 205 206 207 206 199 193 192 192 190 188 187 188 185 181 179 175 172 170 166 161 159 160 162 167 171 176 177 177 177 176 175 173 172 174 175 175
199 190 182 184 191 201 207 209 212 209 211 229 212 200 204 213 220 216 217 233 244 251 245 218 212 229 225 212 211 208 211 217 218 217 213 209 207 207 204 201 203 205 205 207 206 205 206 204 203 202 203 206 207 207 202 195 193 193 193 192 189 189 188 183 181 179 175 172 169 167 168 167 166 169 172 175 176 176 179 180 180 180 177 178 180 183
196 195 190 184 189 202 206 207 212 208 211 237 233 210 213 224 226 217 220 234 239 247 248 217 205 222 196 183 192 192 204 218 219 218 216 213 213 213 210 204 202 205 207 208 208 207 207 203 201 201 201 204 206 206 203 197 194 193 194 195 190 188 188 185 183 183 180 177 174 174 176 174 170 170 171 172 173 175 178 180 182 184 184 184 184 185
178 192 196 194 196 199 197 202 212 211 215 236 231 216 223 226 227 227 227 236 237 240 245 218 204 231 220 173 182 199 212 212 212 217 219 220 220 217 213 208 203 203 206 209 209 210 209 203 200 198 197 201 203 205 205 199 195 193 194 196 193 188 187 187 186 186 185 181 179 180 181 179 175 171 170 172 172 173 175 178 182 185 186 187 187 186
189 197 197 200 205 198 188 197 209 212 216 227 222 217 223 217 219 231 225 229 240 233 228 213 206 231 238 189 164 197 202 183 188 200 203 218 225 221 215 210 206 203 204 208 209 210 208 202 198 196 194 197 201 203 204 200 196 194 194 195 195 192 188 187 188 190 189 185 183 183 184 182 178 173 171 172 172 172 174 178 181 183 184 184 185 186
209 211 199 197 203 199 197 199 202 209 215 218 216 215 217 211 209 225 222 219 234 230 216 211 215 227 239 233 173 173 178 175 182 185 183 203 220 220 215 210 207 205 204 206 208 209 207 202 197 194 194 197 200 200 200 199 197 196 195 194 195 196 191 188 189 192 193 190 187 187 186 184 181 177 174 173 175 177 178 178 179 181 182 181 184 185
203 205 206 207 208 202 201 200 196 200 208 210 209 208 211 213 208 216 220 220 230 230 221 211 222 229 228 223 218 222 228 228 225 228 230 224 217 216 211 207 207 206 206 206 206 207 206 202 197 193 195 198 198 197 197 198 199 198 197 195 195 197 194 190 190 193 196 194 192 192 190 186 183 182 179 176 178 182 182 180 180 184 184 184 187 190
202 197 201 204 212 206 201 205 205 200 203 206 208 210 215 221 222 220 220 222 227 227 217 200 210 228 214 213 232 239 235 236 239 238 235 229 222 219 211 204 204 206 207 206 204 205 205 202 197 195 197 197 196 195 195 197 200 199 199 198 196 197 195 191 190 193 196 197 197 196 194 191 187 186 185 182 183 186 187 186 185 188 189 189 191 194
222 224 190 192 205 201 202 210 211 205 206 204 206 214 220 221 225 236 238 234 234 232 215 204 215 232 215 216 230 236 224 219 226 230 237 230 220 219 216 206 202 204 207 206 201 200 202 199 195 196 197 196 194 194 194 197 200 201 202 201 198 197 196 193 191 192 196 199 200 200 199 197 193 191 190 189 189 192 193 193 193 194 195 198 198 197
222 212 170 187 205 197 201 210 206 210 210 195 202 214 219 219 225 237 243 236 240 246 220 207 222 234 227 227 235 244 243 230 233 245 247 233 216 216 220 212 205 203 204 204 200 198 198 197 195 195 195 194 195 195 194 194 197 202 205 205 200 198 197 194 192 192 195 199 201 203 203 202 200 198 197 196 198 199 200 199 200 202 203 205 206 204
238 203 164 173 203 195 197 199 200 212 212 195 209 215 211 214 227 236 235 219 224 247 226 206 221 230 220 225 243 247 244 240 244 249 242 226 212 213 220 214 206 204 204 203 199 197 197 196 194 194 194 194 194 193 192 190 192 196 200 203 202 201 199 195 192 194 196 199 202 204 205 205 205 205 204 204 204 205 205 205 204 205 208 210 212 212
252 233 179 169 196 194 192 193 198 209 211 212 223 206 196 207 220 220 227 225 213 232 228 202 215 231 223 218 233 227 226 239 247 245 235 222 211 213 221 213 204 204 206 204 200 198 198 196 193 192 193 193 190 188 190 189 190 192 191 194 196 196 198 198 195 195 196 199 202 204 206 207 207 208 208 209 210 209 209 210 210 210 211 213 216 217
246 262 200 172 174 185 189 197 203 200 202 213 226 208 205 220 224 212 219 232 225 228 230 203 208 229 219 205 214 227 240 251 248 234 218 210 209 213 217 210 202 203 206 207 204 202 200 196 193 192 193 191 188 187 190 191 191 191 191 191 191 192 196 199 198 197 197 199 202 204 206 208 209 211 211 212 213 214 214 214 215 216 216 217 219 219
254 260 219 168 172 194 191 198 211 205 195 203 213 215 212 217 225 221 220 224 229 237 231 216 217 219 205 204 219 237 251 250 243 235 217 205 208 208 205 206 203 202 204 204 204 204 203 199 196 196 194 192 190 190 191 192 192 193 194 193 192 193 198 203 202 200 201 202 203 205 207 209 211 213 214 215 216 216 218 220 220 221 221 221 223 224
277 247 242 204 197 203 189 192 211 214 196 197 208 214 214 210 213 222 218 216 225 240 237 236 236 201 197 218 231 240 247 244 240 242 230 213 206 202 197 198 201 204 205 204 203 204 205 204 202 200 198 196 194 194 195 194 194 196 196 197 198 196 197 204 208 206 205 206 206 207 210 211 213 215 216 217 218 218 221 224 224 225 225 225 226 228
288 241 250 237 209 209 214 208 211 207 196 198 210 215 215 213 211 216 220 214 220 231 239 250 257 209 200 221 233 236 240 242 239 236 228 214 207 202 195 195 200 204 206 205 204 205 207 210 208 204 202 200 197 199 201 199 200 201 200 201 204 202 200 203 209 212 210 210 210 209 211 214 215 217 218 218 219 220 222 225 228 228 228 228 228 229
280 252 246 230 204 185 181 202 204 203 200 203 216 223 216 217 218 223 235 243 228 223 224 233 245 233 220 224 233 234 236 240 238 227 220 212 207 205 197 193 195 195 198 202 206 207 209 214 212 206 205 205 203 206 209 206 205 207 206 205 208 208 207 206 208 212 213 213 214 213 213 216 217 219 220 220 221 221 221 224 228 230 230 230 231 230
262 264 240 225 215 193 173 165 170 178 188 196 210 228 222 223 232 236 243 261 247 226 218 222 228 219 216 226 237 235 230 236 234 221 213 212 208 207 202 193 188 189 193 198 203 207 209 213 214 211 211 214 213 213 213 210 209 209 209 210 211 213 214 214 213 214 215 215 216 216 215 217 219 220 221 221 222 222 222 223 227 231 231 231 232 232
253 251 231 226 229 216 199 175 157 160 176 182 184 227 225 226 229 231 233 236 239 232 221 227 233 210 207 222 232 232 225 228 231 221 210 210 210 206 201 196 191 188 190 194 200 204 207 211 213 212 215 222 230 233 226 217 216 218 216 214 215 217 217 218 219 219 219 219 219 219 219 218 220 222 223 222 223 223 223 224 225 229 231 232 233 234
248 244 232 231 232 219 201 150 113 119 146 137 93 120 241 245 228 224 229 232 234 233 227 229 233 246 251 236 237 241 232 226 230 226 209 203 207 205 200 200 196 191 192 194 197 200 204 210 212 212 215 221 232 242 242 231 226 232 230 221 221 224 223 221 222 223 224 224 225 225 225 224 224 225 226 225 224 225 225 225 226 227 230 231 232 234
253 251 240 233 221 201 188 170 135 96 81 69 42 31 17 322 240 220 227 236 236 233 231 227 225 236 256 255 248 253 245 231 228 227 210 196 201 204 204 204 199 198 202 202 199 198 201 208 211 212 214 215 218 225 231 233 237 244 244 230 224 227 228 226 225 227 227 228 229 230 231 230 229 228 230 230 228 227 227 227 228 229 230 231 232 233
251 252 239 228 215 199 196 199 197 211 357 31 25 21 19 2 332 231 235 243 232 227 237 241 226 229 240 247 247 254 253 237 225 224 215 198 200 202 201 200 198 199 206 209 205 199 201 206 208 210 213 214 214 214 217 223 230 236 238 234 228 227 228 228 228 230 231 231 231 232 233 234 234 232 233 234 233 232 230 229 230 231 232 233 234 234
244 240 232 226 222 214 212 220 226 235 256 285 330 345 359 3 354 334 264 242 226 222 234 247 238 219 217 237 247 253 259 251 232 224 215 199 197 198 195 197 200 202 206 210 209 203 204 208 209 211 216 219 220 222 223 224 226 229 232 233 231 229 227 227 227 228 230 232 232 232 233 236 237 237 236 236 237 236 235 233 233 234 236 236 236 236
246 242 238 233 233 226 224 236 240 239 250 265 282 300 316 341 347 350 313 245 226 222 229 227 217 200 206 228 242 247 257 261 245 231 220 204 196 194 193 196 200 203 205 206 207 204 206 211 213 215 219 223 224 225 226 228 228 229 230 230 230 229 226 225 228 229 230 233 232 231 231 233 235 237 238 239 240 240 239 238 236 236 237 238 238 238
255 252 237 231 237 229 218 235 248 245 255 262 265 273 282 318 345 351 340 277 226 217 224 220 203 201 216 226 232 238 247 251 244 235 228 217 204 195 192 194 197 201 204 205 207 208 210 214 217 217 217 219 222 223 223 226 228 228 228 227 226 225 221 221 226 231 232 233 232 230 231 231 231 232 233 235 237 239 240 240 239 237 237 237 238 238
257 251 239 231 240 234 215 221 238 236 249 256 248 239 242 318 349 357 352 327 252 214 212 210 203 210 225 232 231 229 234 237 230 220 220 224 218 203 195 197 201 206 209 212 215 215 215 217 220 223 222 219 218 218 218 221 224 225 225 225 224 223 221 220 223 226 228 229 229 228 228 229 229 229 230 231 233 235 237 238 239 239 237 236 237 238
270 253 251 240 241 236 213 206 216 215 219 223 214 212 229 270 318 357 354 342 313 227 213 210 209 212 220 229 228 221 222 227 217 202 208 220 221 211 205 206 212 217 217 218 219 217 218 222 224 227 227 224 218 214 213 212 214 217 219 220 219 218 218 217 217 219 220 221 222 223 225 227 228 229 230 231 233 235 235 235 236 238 239 236 235 236
305 258 249 242 243 237 211 210 218 215 213 220 221 224 240 258 264 290 331 349 7 342 265 224 219 223 216 214 222 221 222 227 216 201 210 221 216 207 212 216 221 224 223 222 223 223 222 221 219 219 225 225 212 201 199 198 201 211 216 217 216 215 213 212 211 212 213 215 217 220 222 225 226 229 231 232 234 236 237 235 232 232 235 236 235 235
324 268 249 240 240 235 218 217 221 222 223 234 238 235 238 250 255 261 300 343 6 357 335 245 242 249 221 202 214 222 220 223 215 205 214 224 217 208 212 216 219 221 219 216 213 212 214 212 204 197 205 213 203 196 204 208 208 213 215 215 216 215 213 212 213 214 214 216 218 218 219 221 222 226 229 231 235 238 241 240 234 228 228 231 231 232
319 263 248 239 231 236 238 229 223 229 220 218 235 239 235 242 249 236 238 297 336 342 347 334 279 260 228 210 217 216 204 207 209 208 214 219 217 214 214 214 213 210 209 207 197 186 191 201 199 196 201 205 201 201 212 219 220 216 208 208 211 210 209 210 211 212 212 213 215 216 217 218 219 223 228 232 236 240 243 245 240 233 229 228 229 229
313 244 235 237 232 240 250 242 228 230 210 176 224 244 241 241 245 239 232 263 317 328 335 342 331 288 231 221 215 198 195 203 207 209 210 210 211 213 214 212 203 193 192 197 194 187 185 185 187 193 198 199 196 194 196 201 206 204 200 200 202 203 203 203 202 203 204 206 209 213 215 215 215 218 221 223 229 236 237 240 242 238 231 227 227 229
329 286 233 236 243 244 247 245 238 234 196 171 240 249 245 242 245 250 242 237 271 294 235 350 357 355 224 211 203 197 203 208 209 207 206 207 209 208 206 201 191 183 186 189 188 190 189 182 180 184 186 190 197 200 196 192 192 192 193 197 201 205 206 202 200 200 202 205 209 213 214 214 213 213 214 217 224 230 228 229 238 239 229 224 226 231
339 330 245 237 243 240 244 250 242 197 211 257 260 252 246 242 244 251 245 228 234 260 182 46 21 22 24 216 213 209 210 213 211 204 197 198 200 196 193 191 186 182 184 183 181 185 187 181 176 174 173 177 189 200 204 201 193 185 185 193 199 204 205 202 202 205 207 210 212 212 211 212 215 216 216 221 226 227 225 226 234 239 233 228 230 233
322 330 278 247 243 233 243 251 225 132 211 263 266 252 246 247 247 248 248 254 292 305 288 306 9 24 24 327 230 218 220 231 230 214 197 185 177 174 176 179 180 179 176 175 178 181 179 174 169 165 161 161 168 181 191 193 188 180 180 187 191 196 199 198 201 207 211 212 212 209 206 209 216 221 222 223 224 225 226 228 230 232 230 230 233 234
328 300 255 248 262 252 248 249 225 118 340 287 261 237 238 244 251 251 252 267 289 302 299 291 283 292 331 344 272 240 236 243 246 235 221 203 184 182 178 168 165 166 165 167 171 168 159 154 152 148 146 146 151 161 173 179 179 176 178 182 185 190 195 196 200 205 210 212 214 212 207 208 215 223 225 225 226 226 226 226 227 225 219 219 223 225
333 300 313 336 275 251 241 246 235 142 343 308 277 250 220 202 219 242 259 268 275 281 285 285 279 276 268 250 258 260 242 240 247 244 234 223 217 220 210 177 164 162 160 159 158 152 146 144 143 141 138 137 139 146 161 177 183 181 182 184 185 187 193 197 199 201 204 208 212 213 211 210 213 220 225 228 229 232 234 236 239 238 232 226 224 222
316 307 6 18 299 269 259 269 232 188 240 268 220 88 78 142 185 219 256 268 271 270 271 273 271 263 252 244 248 252 247 246 244 228 217 213 217 218 203 179 173 169 160 154 151 149 148 148 148 148 144 141 140 140 146 164 181 189 192 191 190 192 197 200 199 197 199 201 201 202 203 202 203 208 215 219 224 230 236 240 244 245 242 238 235 234
237 234 188 112 284 286 298 274 231 227 236 239 219 194 48 49 240 244 256 267 276 278 273 269 266 254 243 238 238 239 238 218 184 188 197 201 204 198 179 168 171 171 164 157 153 153 153 152 155 159 158 157 153 146 146 154 168 191 204 204 202 201 201 202 201 198 197 198 196 196 197 196 196 197 197 199 204 210 215 221 228 231 232 233 234 237
246 257 277 278 271 274 274 261 252 256 261 259 257 265 277 287 287 283 280 282 284 285 278 273 271 262 247 238 234 235 230 202 168 172 180 181 188 189 180 173 172 170 169 166 161 162 164 164 168 175 177 178 179 178 187 198 196 202 212 216 218 217 214 212 210 207 205 203 202 202 202 201 200 198 196 197 199 200 202 207 211 213 215 219 224 228
261 263 259 260 267 272 269 263 261 262 263 262 267 273 276 280 283 279 278 280 279 281 280 274 271 267 258 252 249 245 236 213 186 177 176 178 186 186 179 177 180 180 181 182 184 192 198 196 194 197 199 201 206 211 225 244 249 245 242 237 231 229 226 224 222 220 220 218 217 217 217 216 215 212 210 210 209 209 211 213 216 219 221 222 225 226
260 264 252 251 257 261 263 265 266 265 266 267 271 276 278 279 279 278 275 272 272 275 277 272 268 267 270 271 267 258 253 240 210 188 180 182 192 193 187 184 187 188 191 197 202 208 214 219 221 225 228 229 228 227 243 266 267 260 256 253 250 245 239 234 231 229 229 230 230 231 232 232 233 232 230 228 227 226 227 227 229 231 234 236 239 241
251 259 254 253 261 268 268 268 271 275 276 272 270 273 278 279 279 280 277 271 269 270 272 274 271 269 276 287 287 266 262 265 239 207 197 196 202 207 205 200 197 198 201 205 207 207 212 221 228 233 238 241 243 245 253 266 280 278 264 254 251 251 248 244 240 235 233 233 233 235 237 238 240 241 243 243 242 242 242 243 243 244 245 247 249 250
253 249 253 260 268 264 251 252 261 266 266 269 271 273 274 275 276 277 276 274 272 269 269 271 271 271 279 295 304 276 259 266 264 242 229 225 226 231 227 215 209 207 205 204 206 211 216 221 226 233 242 250 255 254 252 255 271 291 288 269 254 252 251 249 246 242 238 237 235 235 236 238 240 242 244 246 248 249 249 250 251 252 252 253 255 256
252 244 248 253 255 251 247 252 262 260 255 262 271 272 271 273 275 273 272 273 273 272 271 271 271 273 279 289 300 288 257 254 259 258 254 252 252 258 264 247 229 222 215 205 201 209 219 222 230 245 253 262 271 268 261 259 262 277 296 297 279 263 257 254 251 247 244 242 241 240 240 241 242 244 245 247 249 250 251 252 253 254 255 256 257 259
Height
3164 3166 3167 3168 3169 3171 3173 3174 3174 3174 3175 3176 3177 3178 3178 3179 3180 3180 3180 3180 3181 3182 3183 3183 3184 3185 3187 3188 3190 3192 3193 3195 3197 3198 3200 3202 3203 3205 3207 3209 3210 3212 3214 3215 3217 3218 3219 3220 3222 3223 3224 3225 3226 3227 3228 3229 3230 3230 3231 3232 3233 3233 3234 3235 3236 3237 3237 3238 3239 3239 3240 3241 3242 3242 3243 3244 3245 3245 3246 3247 3248 3249 3250 3251 3251 3252
3164 3166 3166 3168 3170 3171 3172 3172 3172 3174 3176 3176 3177 3177 3178 3179 3180 3181 3181 3180 3181 3182 3183 3183 3184 3185 3186 3187 3188 3190 3192 3193 3195 3197 3199 3201 3202 3204 3206 3208 3210 3212 3213 3214 3216 3217 3219 3220 3221 3222 3223 3224 3226 3227 3228 3229 3230 3230 3231 3232 3233 3234 3234 3235 3236 3237 3238 3238 3239 3240 3241 3242 3242 3243 3244 3245 3245 3246 3247 3248 3248 3249 3250 3251 3252 3253
3163 3165 3166 3168 3169 3170 3170 3171 3172 3174 3176 3177 3177 3177 3176 3177 3179 3181 3180 3180 3180 3182 3184 3183 3184 3185 3185 3186 3187 3188 3191 3193 3194 3196 3198 3200 3201 3203 3205 3207 3209 3211 3212 3213 3215 3217 3218 3219 3220 3222 3223 3224 3225 3226 3227 3228 3229 3230 3231 3232 3233 3234 3234 3235 3236 3237 3238 3238 3239 3240 3241 3242 3243 3244 3245 3245 3246 3247 3248 3248 3249 3250 3251 3252 3253 3253
3163 3164 3166 3167 3167 3168 3170 3171 3172 3174 3176 3177 3177 3176 3175 3176 3179 3180 3180 3180 3181 3182 3183 3182 3184 3185 3183 3184 3186 3187 3189 3191 3193 3194 3196 3198 3200 3202 3204 3206 3208 3209 3211 3213 3214 3216 3217 3218 3220 3221 3223 3224 3225 3226 3227 3228 3229 3230 3231 3232 3233 3233 3234 3235 3236 3237 3238 3238 3239 3240 3241 3242 3243 3244 3245 3246 3247 3248 3248 3249 3250 3250 3251 3252 3253 3254
3163 3163 3164 3164 3165 3168 3171 3172 3173 3175 3176 3177 3177 3176 3175 3177 3178 3179 3180 3180 3181 3182 3182 3182 3184 3184 3182 3182 3184 3186 3187 3189 3190 3192 3194 3196 3198 3200 3203 3205 3206 3208 3210 3212 3213 3215 3216 3217 3219 3221 3222 3223 3225 3226 3227 3228 3229 3230 3231 3231 3232 3233 3234 3235 3236 3237 3238 3239 3240 3241 3242 3242 3243 3244 3245 3246 3247 3248 3249 3250 3250 3251 3252 3253 3253 3254
3162 3160 3161 3164 3166 3169 3171 3172 3173 3174 3175 3176 3176 3176 3177 3178 3178 3178 3179 3180 3181 3181 3181 3182 3182 3182 3181 3182 3183 3184 3185 3187 3188 3190 3192 3194 3196 3198 3200 3203 3205 3207 3208 3210 3212 3214 3215 3217 3218 3220 3221 3223 3224 3225 3226 3227 3228 3229 3230 3231 3232 3233 3234 3235 3236 3237 3238 3239 3240 3241 3242 3243 3244 3245 3246 3247 3247 3248 3249 3250 3251 3251 3252 3253 3254 3254
3160 3159 3161 3164 3166 3168 3170 3172 3173 3173 3175 3175 3174 3176 3177 3178 3178 3178 3178 3180 3181 3180 3179 3180 3181 3179 3180 3182 3182 3182 3183 3185 3186 3188 3190 3191 3193 3196 3198 3201 3203 3205 3207 3209 3211 3213 3214 3216 3217 3219 3220 3222 3223 3225 3226 3227 3228 3228 3229 3230 3232 3232 3233 3235 3236 3237 3238 3239 3240 3241 3242 3243 3244 3245 3246 3247 3247 3248 3249 3250 3251 3251 3252 3253 3254 3254
3158 3159 3161 3164 3166 3168 3169 3171 3172 3173 3174 3174 3173 3175 3177 3178 3179 3178 3179 3179 3180 3180 3179 3179 3180 3179 3178 3179 3180 3181 3182 3183 3183 3185 3187 3189 3191 3194 3196 3198 3201 3203 3206 3207 3209 3211 3213 3215 3216 3218 3219 3221 3223 3224 3225 3226 3227 3228 3229 3230 3231 3232 3233 3234 3236 3237 3238 3239 3240 3241 3242 3243 3244 3245 3246 3247 3247 3248 3249 3250 3251 3251 3252 3253 3254 3255
3158 3160 3161 3163 3165 3167 3168 3170 3171 3172 3173 3173 3172 3175 3177 3178 3178 3179 3179 3180 3180 3180 3178 3177 3179 3177 3176 3177 3178 3178 3180 3180 3181 3182 3184 3186 3189 3191 3194 3196 3199 3201 3204 3206 3208 3210 3212 3213 3215 3217 3219 3220 3222 3223 3224 3225 3226 3227 3228 3229 3230 3232 3233 3234 3235 3236 3238 3239 3240 3241 3242 3243 3244 3245 3246 3247 3248 3248 3249 3250 3251 3251 3252 3253 3254 3254
3157 3159 3161 3163 3165 3166 3167 3169 3170 3171 3173 3173 3172 3175 3176 3177 3178 3178 3179 3179 3180 3179 3175 3175 3177 3174 3173 3176 3176 3176 3177 3177 3178 3180 3182 3184 3187 3189 3191 3194 3196 3199 3202 3204 3206 3208 3210 3212 3214 3216 3218 3219 3221 3222 3223 3225 3225 3227 3228 3229 3230 3231 3232 3234 3235 3236 3237 3239 3240 3241 3242 3243 3244 3244 3245 3246 3247 3248 3249 3250 3251 3251 3252 3253 3253 3254
3156 3157 3159 3161 3164 3165 3166 3167 3168 3170 3172 3172 3173 3175 3177 3177 3178 3178 3178 3179 3179 3176 3172 3172 3175 3174 3171 3172 3173 3174 3175 3176 3177 3179 3181 3182 3184 3186 3189 3191 3194 3197 3199 3202 3204 3207 3209 3211 3213 3214 3216 3218 3220 3221 3222 3223 3225 3226 3227 3228 3229 3231 3232 3233 3234 3236 3237 3238 3239 3240 3241 3242 3243 3244 3245 3246 3247 3248 3249 3249 3250 3251 3252 3252 3253 3254
3156 3157 3159 3160 3162 3163 3165 3166 3167 3168 3170 3171 3173 3175 3176 3176 3177 3177 3177 3179 3177 3172 3170 3171 3174 3174 3171 3169 3171 3173 3174 3175 3177 3178 3179 3181 3182 3184 3186 3188 3191 3194 3197 3200 3202 3205 3207 3209 3211 3213 3215 3217 3218 3220 3221 3222 3224 3225 3226 3227 3229 3230 3231 3233 3234 3235 3237 3238 3239 3240 3241 3242 3243 3244 3245 3246 3247 3247 3248 3249 3250 3251 3251 3252 3253 3253
3156 3157 3159 3159 3160 3162 3164 3165 3166 3167 3169 3170 3173 3174 3174 3172 3175 3175 3174 3176 3174 3170 3170 3172 3172 3173 3171 3170 3171 3172 3173 3175 3176 3177 3178 3179 3180 3181 3183 3185 3188 3192 3195 3198 3200 3202 3205 3207 3209 3211 3213 3215 3216 3218 3220 3221 3222 3224 3225 3226 3228 3230 3231 3232 3233 3235 3236 3237 3239 3240 3240 3241 3243 3244 3244 3245 3246 3247 3248 3248 3249 3250 3251 3252 3252 3253
3154 3156 3157 3159 3159 3160 3162 3164 3165 3166 3167 3169 3170 3172 3171 3169 3170 3172 3170 3171 3170 3168 3169 3172 3172 3171 3170 3171 3171 3172 3173 3174 3175 3176 3177 3178 3179 3179 3181 3184 3187 3190 3193 3196 3198 3201 3203 3205 3207 3209 3211 3213 3215 3217 3219 3220 3221 3223 3224 3225 3227 3229 3230 3231 3232 3234 3235 3237 3238 3239 3240 3241 3242 3243 3244 3245 3246 3247 3247 3248 3249 3249 3250 3251 3252 3253
3150 3151 3153 3156 3157 3158 3160 3162 3163 3164 3166 3167 3169 3170 3170 3167 3167 3167 3165 3165 3166 3167 3168 3171 3171 3169 3168 3169 3170 3171 3172 3173 3174 3175 3175 3176 3177 3178 3179 3182 3184 3187 3190 3193 3196 3199 3201 3203 3205 3207 3210 3212 3214 3216 3218 3219 3220 3221 3223 3224 3226 3228 3229 3230 3232 3233 3234 3236 3237 3238 3239 3240 3241 3242 3243 3244 3245 3246 3247 3248 3248 3249 3249 3250 3251 3252
3151 3149 3150 3154 3156 3156 3159 3161 3162 3164 3164 3165 3168 3168 3167 3167 3167 3165 3163 3164 3165 3165 3167 3169 3169 3168 3167 3168 3169 3170 3171 3172 3173 3173 3174 3175 3175 3177 3178 3179 3182 3184 3188 3191 3194 3197 3199 3201 3204 3206 3208 3210 3212 3215 3216 3217 3219 3220 3222 3223 3224 3226 3228 3229 3231 3232 3233 3235 3236 3237 3238 3239 3240 3241 3242 3243 3244 3245 3246 3247 3247 3248 3249 3250 3250 3251
3150 3149 3150 3153 3154 3156 3158 3159 3161 3162 3162 3163 3165 3165 3165 3167 3168 3166 3164 3165 3166 3164 3163 3165 3167 3167 3168 3168 3168 3169 3170 3170 3172 3172 3173 3173 3174 3175 3176 3177 3179 3182 3185 3189 3192 3195 3197 3200 3202 3205 3207 3209 3211 3213 3215 3216 3218 3219 3221 3222 3223 3225 3227 3228 3229 3231 3232 3233 3235 3236 3237 3238 3239 3240 3241 3242 3243 3244 3245 3246 3246 3247 3248 3249 3250 3251
3149 3148 3149 3152 3153 3154 3156 3158 3160 3161 3161 3162 3163 3163 3165 3167 3167 3166 3164 3164 3166 3163 3159 3162 3165 3165 3166 3167 3167 3168 3169 3169 3170 3171 3171 3172 3173 3173 3174 3175 3177 3180 3183 3186 3189 3193 3196 3198 3200 3203 3206 3208 3210 3212 3213 3215 3217 3219 3220 3221 3222 3224 3226 3227 3228 3230 3231 3232 3233 3235 3236 3237 3238 3239 3240 3241 3242 3243 3244 3245 3245 3246 3247 3248 3249 3250
3150 3148 3147 3151 3152 3152 3154 3156 3158 3159 3160 3161 3161 3161 3163 3164 3165 3166 3163 3160 3161 3161 3157 3159 3163 3163 3163 3166 3167 3167 3168 3168 3169 3170 3170 3171 3172 3172 3173 3173 3175 3177 3180 3184 3187 3190 3193 3196 3199 3201 3204 3206 3208 3210 3212 3214 3216 3217 3219 3220 3221 3223 3224 3226 3227 3228 3229 3231 3232 3233 3235 3236 3237 3238 3239 3240 3241 3241 3242 3243 3244 3245 3246 3247 3248 3249
3151 3149 3147 3149 3151 3152 3153 3154 3155 3156 3159 3160 3160 3161 3162 3162 3161 3162 3162 3158 3157 3156 3155 3156 3160 3161 3161 3164 3165 3165 3166 3167 3168 3168 3169 3170 3171 3172 3172 3172 3173 3175 3178 3183 3187 3189 3192 3195 3197 3199 3202 3204 3206 3208 3210 3212 3214 3216 3217 3219 3220 3221 3222 3224 3225 3226 3228 3229 3231 3232 3233 3234 3235 3237 3238 3239 3240 3240 3241 3242 3243 3244 3245 3245 3246 3247
3151 3150 3148 3148 3150 3150 3150 3151 3152 3152 3155 3158 3159 3160 3160 3160 3160 3160 3159 3158 3156 3154 3152 3152 3156 3159 3160 3161 3163 3164 3165 3166 3167 3167 3168 3169 3170 3171 3172 3172 3173 3175 3177 3181 3184 3187 3190 3193 3196 3198 3200 3202 3204 3206 3208 3210 3212 3214 3216 3217 3219 3220 3221 3222 3224 3225 3226 3227 3229 3230 3231 3233 3234 3235 3236 3237 3238 3239 3240 3240 3241 3242 3243 3244 3245 3246
3151 3150 3149 3148 3148 3147 3147 3149 3150 3150 3152 3154 3156 3157 3157 3158 3159 3159 3156 3156 3157 3156 3153 3151 3153 3156 3158 3159 3161 3163 3164 3164 3165 3166 3167 3168 3169 3170 3171 3172 3173 3174 3176 3179 3182 3185 3188 3191 3193 3196 3198 3200 3202 3204 3206 3208 3210 3212 3214 3215 3217 3218 3219 3221 3222 3223 3224 3225 3227 3228 3229 3231 3232 3233 3234 3235 3236 3237 3238 3239 3240 3241 3242 3243 3244 3245
3150 3150 3150 3148 3147 3147 3147 3148 3149 3150 3151 3153 3154 3154 3155 3156 3157 3157 3154 3154 3156 3156 3155 3155 3154 3155 3158 3159 3160 3161 3163 3163 3164 3165 3166 3167 3168 3170 3171 3172 3173 3174 3176 3178 3181 3183 3186 3188 3190 3193 3195 3198 3200 3202 3204 3206 3208 3210 3212 3213 3214 3216 3217 3219 3220 3221 3222 3223 3225 3226 3227 3229 3230 3231 3232 3233 3234 3236 3237 3238 3239 3240 3241 3242 3243 3244
3150 3150 3150 3149 3148 3149 3148 3148 3149 3150 3151 3153 3153 3153 3154 3154 3154 3154 3154 3154 3154 3153 3155 3157 3157 3156 3158 3158 3158 3160 3162 3162 3163 3164 3165 3166 3168 3169 3170 3172 3172 3174 3175 3177 3179 3182 3184 3186 3188 3191 3194 3196 3198 3200 3201 3202 3204 3206 3209 3211 3213 3214 3216 3217 3218 3219 3220 3221 3222 3224 3225 3227 3228 3229 3230 3231 3233 3234 3235 3236 3237 3238 3239 3240 3241 3242
3150 3150 3150 3149 3149 3148 3148 3147 3148 3150 3151 3152 3153 3152 3152 3153 3154 3154 3154 3155 3153 3151 3153 3154 3153 3155 3157 3157 3158 3159 3160 3161 3162 3163 3164 3166 3167 3168 3170 3171 3172 3173 3174 3176 3178 3180 3182 3184 3186 3188 3191 3193 3195 3196 3197 3200 3202 3204 3206 3208 3210 3212 3214 3215 3216 3217 3218 3219 3220 3221 3223 3225 3226 3227 3228 3230 3231 3232 3233 3235 3236 3237 3238 3239 3239 3240
3150 3150 3150 3149 3148 3147 3148 3147 3148 3150 3151 3151 3151 3151 3151 3152 3153 3154 3154 3155 3153 3152 3153 3153 3152 3153 3156 3157 3157 3158 3159 3160 3161 3162 3163 3164 3166 3167 3169 3170 3171 3172 3173 3175 3176 3178 3180 3182 3183 3186 3188 3190 3192 3193 3195 3198 3200 3202 3204 3205 3207 3208 3210 3212 3214 3215 3215 3216 3217 3219 3221 3222 3224 3225 3226 3228 3229 3230 3231 3232 3234 3235 3236 3237 3238 3239
3149 3149 3150 3150 3149 3149 3150 3150 3150 3151 3151 3151 3151 3151 3152 3152 3152 3153 3154 3153 3152 3152 3153 3153 3153 3154 3155 3156 3157 3157 3158 3159 3159 3160 3162 3163 3164 3166 3168 3169 3170 3171 3172 3173 3175 3176 3178 3180 3181 3183 3185 3187 3190 3192 3193 3196 3197 3199 3201 3203 3204 3205 3207 3209 3211 3212 3213 3215 3216 3217 3219 3220 3222 3223 3224 3225 3226 3228 3229 3230 3231 3233 3234 3235 3236 3237
3149 3149 3148 3149 3149 3150 3151 3152 3151 3151 3150 3150 3150 3150 3151 3152 3151 3152 3152 3151 3151 3152 3152 3152 3154 3155 3156 3157 3157 3157 3157 3158 3158 3159 3161 3162 3163 3165 3166 3168 3169 3170 3171 3172 3173 3175 3177 3178 3180 3182 3183 3185 3187 3188 3190 3192 3195 3196 3198 3200 3201 3203 3205 3207 3209 3210 3211 3212 3214 3215 3217 3218 3220 3221 3222 3223 3224 3225 3226 3228 3229 3230 3231 3232 3234 3235
3148 3148 3148 3148 3149 3150 3150 3150 3151 3151 3150 3150 3150 3150 3151 3151 3151 3151 3151 3150 3151 3152 3152 3152 3153 3155 3156 3156 3156 3156 3156 3157 3157 3158 3160 3162 3162 3164 3165 3167 3168 3169 3170 3170 3172 3174 3176 3177 3178 3180 3182 3183 3184 3185 3187 3189 3191 3193 3195 3197 3198 3200 3201 3203 3205 3207 3208 3210 3211 3213 3214 3215 3217 3218 3219 3220 3221 3223 3224 3225 3226 3228 3229 3230 3232 3233
3147 3148 3148 3148 3148 3148 3149 3149 3149 3150 3150 3149 3150 3150 3150 3151 3150 3150 3150 3149 3150 3151 3152 3152 3153 3154 3155 3155 3155 3155 3156 3156 3157 3157 3159 3160 3161 3163 3164 3165 3166 3167 3168 3169 3171 3173 3174 3175 3177 3179 3180 3181 3182 3184 3185 3186 3188 3190 3192 3194 3195 3197 3198 3200 3201 3203 3204 3206 3208 3210 3211 3212 3214 3216 3217 3218 3219 3220 3221 3223 3224 3225 3226 3228 3229 3230
3147 3147 3147 3147 3147 3147 3148 3148 3148 3148 3149 3149 3149 3149 3150 3150 3150 3149 3149 3148 3149 3151 3151 3152 3153 3154 3154 3153 3154 3154 3155 3155 3156 3157 3158 3159 3161 3162 3163 3164 3165 3166 3167 3169 3170 3172 3174 3174 3176 3177 3178 3180 3181 3182 3183 3184 3186 3187 3189 3191 3192 3194 3195 3197 3198 3199 3201 3203 3204 3206 3207 3208 3210 3212 3213 3215 3216 3217 3219 3220 3222 3223 3224 3225 3226 3228
3146 3146 3146 3147 3146 3145 3146 3148 3147 3147 3148 3148 3149 3149 3149 3150 3150 3149 3148 3147 3148 3149 3150 3151 3152 3152 3152 3152 3153 3153 3154 3155 3155 3156 3157 3158 3159 3161 3162 3163 3164 3165 3167 3168 3170 3171 3173 3173 3174 3176 3177 3178 3179 3180 3181 3183 3185 3186 3187 3188 3190 3191 3192 3194 3195 3197 3198 3199 3201 3202 3203 3204 3206 3207 3209 3210 3211 3213 3215 3217 3218 3219 3221 3222 3223 3225
3146 3146 3146 3146 3145 3144 3146 3147 3147 3147 3147 3147 3147 3148 3149 3150 3150 3149 3148 3147 3147 3148 3149 3150 3150 3150 3150 3151 3151 3152 3153 3154 3155 3156 3157 3157 3158 3160 3161 3162 3163 3164 3165 3167 3168 3169 3171 3172 3173 3174 3175 3176 3177 3179 3181 3182 3183 3184 3185 3186 3187 3188 3189 3191 3192 3194 3195 3196 3197 3198 3199 3201 3202 3203 3204 3206 3207 3208 3210 3212 3214 3216 3217 3219 3220 3222
3145 3145 3145 3145 3144 3144 3146 3147 3147 3146 3145 3145 3145 3147 3148 3149 3149 3149 3149 3148 3147 3147 3147 3148 3148 3148 3149 3150 3150 3150 3152 3152 3153 3155 3156 3156 3157 3159 3161 3161 3162 3163 3164 3165 3166 3167 3168 3169 3171 3172 3173 3174 3175 3177 3179 3181 3182 3183 3184 3185 3185 3186 3187 3189 3190 3191 3192 3193 3194 3195 3196 3197 3198 3199 3201 3202 3203 3204 3206 3208 3210 3212 3214 3215 3217 3218
3145 3145 3145 3144 3144 3144 3145 3146 3145 3143 3142 3143 3144 3145 3146 3147 3148 3149 3148 3148 3147 3146 3146 3146 3146 3146 3148 3149 3148 3148 3149 3150 3152 3153 3154 3154 3156 3158 3159 3160 3161 3161 3162 3163 3164 3165 3166 3167 3168 3170 3171 3172 3172 3174 3176 3179 3180 3181 3182 3183 3184 3184 3185 3187 3188 3189 3190 3191 3192 3193 3193 3194 3195 3196 3197 3198 3199 3201 3202 3203 3205 3207 3209 3211 3214 3215
3144 3144 3144 3144 3143 3143 3143 3143 3143 3142 3142 3143 3143 3144 3145 3146 3147 3147 3148 3148 3147 3146 3146 3146 3145 3145 3146 3147 3146 3146 3148 3150 3151 3153 3154 3154 3155 3156 3157 3158 3159 3160 3161 3162 3162 3164 3164 3165 3167 3168 3170 3171 3171 3172 3174 3176 3178 3180 3181 3181 3181 3182 3183 3184 3185 3187 3188 3188 3189 3190 3191 3192 3193 3194 3195 3196 3197 3198 3198 3199 3201 3203 3205 3207 3210 3212
3143 3143 3144 3143 3142 3142 3141 3141 3142 3142 3142 3143 3143 3143 3144 3145 3146 3146 3147 3147 3146 3146 3146 3146 3145 3144 3145 3145 3145 3146 3147 3149 3151 3152 3153 3153 3154 3155 3156 3156 3157 3158 3159 3160 3161 3163 3163 3164 3165 3167 3168 3169 3170 3171 3172 3174 3176 3178 3179 3179 3179 3180 3180 3181 3183 3184 3185 3186 3187 3188 3189 3190 3191 3192 3192 3193 3194 3194 3195 3196 3197 3199 3201 3204 3206 3208
3142 3142 3142 3142 3142 3141 3140 3140 3141 3142 3141 3142 3142 3142 3143 3144 3145 3146 3147 3147 3146 3145 3145 3145 3144 3143 3143 3144 3145 3146 3146 3148 3149 3150 3151 3152 3153 3153 3154 3155 3156 3157 3157 3158 3159 3161 3162 3162 3164 3165 3166 3167 3168 3169 3171 3171 3173 3175 3176 3177 3178 3179 3179 3179 3180 3182 3183 3184 3185 3186 3187 3188 3189 3190 3191 3191 3191 3192 3192 3192 3193 3195 3198 3200 3202 3203
3142 3142 3142 3142 3141 3141 3140 3139 3139 3140 3141 3142 3142 3142 3143 3144 3144 3145 3146 3146 3145 3145 3144 3144 3144 3143 3142 3143 3145 3146 3147 3147 3148 3148 3150 3151 3151 3152 3153 3154 3154 3154 3155 3156 3157 3159 3160 3161 3162 3163 3164 3165 3166 3168 3168 3169 3170 3172 3173 3174 3176 3176 3177 3178 3179 3180 3181 3182 3183 3184 3185 3186 3187 3188 3189 3190 3190 3190 3190 3190 3191 3192 3194 3197 3199 3199
3142 3142 3142 3141 3140 3140 3139 3138 3139 3140 3141 3141 3142 3142 3143 3143 3144 3145 3144 3144 3145 3144 3143 3143 3143 3143 3142 3144 3145 3146 3146 3147 3146 3147 3147 3148 3149 3149 3149 3151 3151 3151 3152 3154 3155 3157 3158 3159 3160 3161 3162 3163 3164 3166 3167 3167 3168 3169 3171 3172 3173 3174 3175 3176 3177 3178 3179 3180 3181 3182 3183 3184 3185 3186 3187 3188 3189 3189 3189 3189 3190 3191 3194 3196 3196 3196
3142 3142 3142 3141 3140 3139 3139 3138 3138 3140 3141 3141 3141 3142 3142 3143 3144 3144 3143 3143 3144 3144 3143 3143 3143 3143 3143 3144 3145 3146 3147 3147 3147 3147 3147 3147 3147 3147 3146 3147 3148 3149 3150 3151 3153 3155 3156 3157 3158 3160 3161 3161 3163 3164 3165 3166 3167 3168 3169 3170 3171 3172 3173 3174 3175 3176 3177 3178 3179 3180 3181 3182 3183 3184 3185 3186 3187 3187 3188 3189 3189 3190 3192 3194 3194 3194
3142 3142 3141 3140 3140 3139 3139 3138 3138 3139 3140 3141 3141 3141 3142 3142 3143 3143 3143 3143 3143 3143 3143 3143 3143 3143 3143 3144 3145 3146 3146 3147 3147 3148 3147 3147 3148 3148 3147 3146 3146 3147 3148 3149 3151 3153 3155 3156 3157 3159 3160 3161 3162 3163 3164 3165 3166 3166 3167 3168 3169 3170 3171 3172 3173 3174 3175 3176 3177 3178 3179 3181 3181 3182 3183 3184 3185 3186 3186 3188 3188 3189 3190 3192 3192 3194
3142 3141 3141 3141 3140 3139 3139 3138 3138 3139 3140 3140 3141 3141 3142 3142 3142 3142 3142 3143 3143 3143 3142 3142 3142 3143 3143 3143 3144 3145 3146 3146 3147 3147 3147 3146 3147 3148 3149 3149 3148 3147 3148 3149 3150 3152 3154 3156 3157 3159 3160 3161 3162 3163 3164 3165 3165 3166 3167 3167 3168 3169 3170 3171 3172 3173 3174 3175 3176 3177 3178 3179 3180 3181 3182 3183 3183 3184 3185 3186 3187 3188 3189 3190 3190 3192
3142 3141 3141 3141 3140 3139 3139 3139 3139 3140 3141 3141 3141 3142 3142 3142 3142 3142 3142 3142 3142 3142 3142 3142 3142 3142 3142 3143 3144 3144 3145 3146 3146 3146 3147 3146 3146 3148 3150 3150 3150 3149 3149 3149 3149 3151 3153 3155 3157 3159 3160 3161 3162 3163 3164 3164 3165 3166 3166 3167 3167 3168 3169 3170 3171 3172 3173 3174 3175 3176 3177 3178 3179 3179 3180 3181 3181 3182 3183 3183 3185 3186 3187 3188 3189 3190
3141 3141 3141 3141 3141 3140 3140 3140 3141 3141 3141 3141 3141 3141 3141 3141 3142 3142 3142 3142 3141 3141 3141 3141 3142 3141 3141 3142 3143 3143 3144 3145 3144 3145 3146 3146 3146 3147 3149 3151 3152 3152 3151 3150 3150 3151 3152 3154 3156 3158 3159 3160 3161 3162 3163 3164 3164 3165 3165 3166 3167 3168 3169 3169 3170 3171 3172 3173 3174 3175 3176 3177 3177 3178 3179 3180 3180 3181 3182 3182 3183 3184 3185 3186 3187 3188
3140 3140 3141 3141 3141 3141 3140 3140 3140 3140 3141 3141 3141 3141 3141 3141 3141 3141 3141 3141 3140 3140 3140 3140 3140 3140 3140 3140 3141 3141 3142 3144 3144 3144 3145 3145 3145 3146 3148 3150 3151 3152 3153 3152 3152 3153 3153 3153 3155 3157 3158 3159 3160 3161 3162 3163 3163 3164 3165 3165 3166 3167 3167 3168 3169 3170 3171 3172 3173 3174 3175 3176 3177 3177 3178 3179 3180 3181 3181 3182 3183 3183 3184 3185 3186 3187
3139 3139 3140 3140 3140 3140 3140 3140 3139 3140 3140 3140 3140 3140 3140 3140 3140 3140 3140 3140 3140 3140 3139 3139 3139 3139 3139 3139 3139 3139 3141 3143 3144 3143 3144 3144 3144 3145 3146 3148 3150 3151 3152 3152 3153 3154 3153 3153 3154 3156 3157 3158 3159 3160 3161 3162 3162 3163 3163 3164 3165 3165 3166 3167 3167 3168 3169 3170 3171 3172 3173 3174 3175 3176 3177 3178 3179 3180 3180 3181 3181 3182 3183 3184 3185 3186
3138 3138 3139 3139 3139 3140 3139 3138 3138 3139 3139 3138 3139 3139 3139 3139 3139 3139 3139 3139 3139 3139 3139 3138 3138 3138 3138 3137 3137 3138 3140 3142 3143 3144 3144 3144 3145 3146 3146 3147 3148 3149 3150 3151 3152 3152 3153 3153 3154 3155 3156 3157 3158 3159 3160 3161 3161 3162 3162 3163 3163 3164 3164 3165 3166 3166 3167 3168 3169 3170 3171 3172 3173 3174 3175 3176 3177 3178 3179 3179 3180 3181 3181 3182 3183 3184
3137 3138 3138 3138 3138 3139 3138 3137 3137 3138 3137 3137 3137 3137 3137 3138 3138 3138 3138 3138 3138 3138 3138 3137 3137 3137 3137 3137 3136 3137 3139 3141 3142 3144 3145 3145 3146 3147 3146 3146 3147 3148 3149 3150 3150 3151 3151 3152 3153 3154 3155 3156 3157 3158 3159 3160 3160 3161 3161 3161 3162 3162 3162 3163 3163 3164 3165 3166 3167 3168 3169 3170 3171 3172 3173 3173 3174 3175 3176 3177 3178 3178 3179 3180 3180 3181
3135 3137 3136 3136 3138 3138 3136 3136 3136 3137 3137 3135 3135 3136 3136 3136 3136 3136 3137 3137 3136 3137 3136 3136 3136 3136 3136 3136 3136 3137 3138 3139 3140 3142 3143 3144 3144 3145 3146 3146 3146 3147 3147 3148 3149 3150 3150 3151 3152 3153 3155 3156 3156 3157 3157 3158 3158 3159 3160 3160 3160 3161 3161 3161 3161 3162 3162 3163 3164 3165 3166 3167 3168 3169 3170 3171 3171 3172 3173 3174 3175 3175 3176 3177 3177 3178
3133 3134 3134 3135 3136 3135 3134 3134 3135 3135 3135 3134 3134 3134 3135 3135 3135 3135 3135 3135 3135 3135 3136 3135 3135 3135 3135 3136 3136 3137 3137 3137 3138 3139 3140 3141 3142 3143 3143 3144 3145 3146 3146 3147 3148 3148 3148 3149 3151 3152 3153 3154 3155 3155 3156 3156 3156 3157 3158 3159 3159 3159 3159 3160 3160 3160 3160 3160 3161 3162 3162 3163 3164 3165 3166 3167 3168 3169 3169 3170 3171 3172 3172 3173 3174 3174